contact:dominique.lefevre@mio.osupytheas.fr, maurice.libes@osupytheas.fr, didier.mallarino@osupytheas.fr
Project:EMSO http://www.emso-fr.org/EMSO-France
Depth: 2436.0 m
Title:EMSO Ligure Ouest : Data MII capteur OXYGEN
DateTime,Latitude,Longitude,Optode-Type,Optode_Serial,Oxygen,Saturation_Oxygen,Temperature
DateTime,Latitude,Longitude,Optode-Type,Optode_Serial,µmol.l-1,%,degC
2019-06-22T00:00:57,42.805,6.029,4330,1995,191.965,58.718,13.297
2019-06-22T00:03:57,42.805,6.029,4330,1995,191.941,58.711,13.298
2019-06-22T00:06:57,42.805,6.029,4330,1995,191.940,58.711,13.298
2019-06-22T00:09:57,42.805,6.029,4330,1995,191.982,58.723,13.297
2019-06-22T00:12:57,42.805,6.029,4330,1995,191.978,58.722,13.298
2019-06-22T00:15:57,42.805,6.029,4330,1995,191.920,58.703,13.297
2019-06-22T00:18:57,42.805,6.029,4330,1995,191.930,58.707,13.297
2019-06-22T00:21:57,42.805,6.029,4330,1995,191.892,58.696,13.298
2019-06-22T00:24:57,42.805,6.029,4330,1995,191.865,58.687,13.297
2019-06-22T00:27:57,42.805,6.029,4330,1995,191.854,58.683,13.297
2019-06-22T00:30:57,42.805,6.029,4330,1995,191.753,58.652,13.297
2019-06-22T00:33:57,42.805,6.029,4330,1995,191.778,58.661,13.298
2019-06-22T00:36:57,42.805,6.029,4330,1995,191.747,58.650,13.297
2019-06-22T00:39:57,42.805,6.029,4330,1995,191.829,58.672,13.294
2019-06-22T00:42:57,42.805,6.029,4330,1995,191.882,58.693,13.298
2019-06-22T00:45:57,42.805,6.029,4330,1995,191.833,58.675,13.296
2019-06-22T00:48:57,42.805,6.029,4330,1995,191.807,58.666,13.295
2019-06-22T00:51:57,42.805,6.029,4330,1995,191.816,58.669,13.295
2019-06-22T00:54:57,42.805,6.029,4330,1995,191.823,58.673,13.297
2019-06-22T00:57:57,42.805,6.029,4330,1995,191.644,58.622,13.300
2019-06-22T01:00:57,42.805,6.029,4330,1995,191.238,58.501,13.302
2019-06-22T01:06:57,42.805,6.029,4330,1995,191.110,58.449,13.292
2019-06-22T01:09:57,42.805,6.029,4330,1995,190.913,58.397,13.298
2019-06-22T01:12:57,42.805,6.029,4330,1995,190.809,58.371,13.303
2019-06-22T01:15:57,42.805,6.029,4330,1995,190.833,58.378,13.302
2019-06-22T01:18:57,42.805,6.029,4330,1995,190.910,58.402,13.303
2019-06-22T01:21:57,42.805,6.029,4330,1995,190.837,58.375,13.299
2019-06-22T01:24:57,42.805,6.029,4330,1995,191.060,58.446,13.301
2019-06-22T01:27:57,42.805,6.029,4330,1995,190.908,58.399,13.301
2019-06-22T01:30:57,42.805,6.029,4330,1995,190.908,58.401,13.303
2019-06-22T01:33:57,42.805,6.029,4330,1995,190.747,58.349,13.300
2019-06-22T01:36:57,42.805,6.029,4330,1995,190.921,58.404,13.302
2019-06-22T01:39:57,42.805,6.029,4330,1995,190.727,58.345,13.302
2019-06-22T01:42:57,42.805,6.029,4330,1995,190.524,58.283,13.302
2019-06-22T01:45:57,42.805,6.029,4330,1995,190.762,58.354,13.301
2019-06-22T01:48:57,42.805,6.029,4330,1995,190.644,58.318,13.301
2019-06-22T01:51:57,42.805,6.029,4330,1995,190.581,58.299,13.301
2019-06-22T01:54:57,42.805,6.029,4330,1995,190.671,58.325,13.300
2019-06-22T01:57:57,42.805,6.029,4330,1995,190.973,58.414,13.297
2019-06-22T02:00:57,42.805,6.029,4330,1995,190.939,58.402,13.296
2019-06-22T02:03:57,42.805,6.029,4330,1995,190.870,58.385,13.299
2019-06-22T02:06:57,42.805,6.029,4330,1995,190.701,58.335,13.300
2019-06-22T02:09:57,42.805,6.029,4330,1995,190.869,58.384,13.298
2019-06-22T02:12:57,42.805,6.029,4330,1995,190.689,58.330,13.299
2019-06-22T02:15:57,42.805,6.029,4330,1995,190.550,58.284,13.297
2019-06-22T02:18:57,42.805,6.029,4330,1995,190.677,58.323,13.297
2019-06-22T02:21:57,42.805,6.029,4330,1995,190.433,58.251,13.299
2019-06-22T02:24:57,42.805,6.029,4330,1995,190.407,58.247,13.301
2019-06-22T02:27:57,42.805,6.029,4330,1995,190.422,58.252,13.303
2019-06-22T02:30:57,42.805,6.029,4330,1995,190.646,58.317,13.299
2019-06-22T02:33:57,42.805,6.029,4330,1995,190.954,58.413,13.301
2019-06-22T02:36:57,42.805,6.029,4330,1995,190.738,58.346,13.300
2019-06-22T02:39:57,42.805,6.029,4330,1995,190.676,58.329,13.301
2019-06-22T02:42:57,42.805,6.029,4330,1995,190.711,58.334,13.297
2019-06-22T02:45:57,42.805,6.029,4330,1995,190.689,58.332,13.301
2019-06-22T02:48:57,42.805,6.029,4330,1995,190.727,58.339,13.297
2019-06-22T02:51:57,42.805,6.029,4330,1995,191.096,58.454,13.299
2019-06-22T02:54:57,42.805,6.029,4330,1995,191.058,58.443,13.299
2019-06-22T02:57:57,42.805,6.029,4330,1995,191.244,58.499,13.299
2019-06-22T03:00:57,42.805,6.029,4330,1995,191.485,58.569,13.296
2019-06-22T03:03:57,42.805,6.029,4330,1995,191.604,58.608,13.298
2019-06-22T03:06:57,42.805,6.029,4330,1995,191.500,58.575,13.297
2019-06-22T03:09:56,42.805,6.029,4330,1995,191.649,58.621,13.297
2019-06-22T03:12:56,42.805,6.029,4330,1995,191.600,58.607,13.298
2019-06-22T03:15:56,42.805,6.029,4330,1995,191.684,58.633,13.299
2019-06-22T03:18:56,42.805,6.029,4330,1995,191.499,58.577,13.299
2019-06-22T03:21:56,42.805,6.029,4330,1995,191.409,58.547,13.297
2019-06-22T03:24:56,42.805,6.029,4330,1995,191.782,58.658,13.294
2019-06-22T03:27:56,42.805,6.029,4330,1995,191.879,58.693,13.298
2019-06-22T03:30:56,42.805,6.029,4330,1995,191.864,58.687,13.298
2019-06-22T03:33:56,42.805,6.029,4330,1995,191.868,58.690,13.299
2019-06-22T03:42:56,42.805,6.029,4330,1995,191.949,58.708,13.294
2019-06-22T03:45:56,42.805,6.029,4330,1995,191.703,58.639,13.298
2019-06-22T03:48:56,42.805,6.029,4330,1995,191.658,58.625,13.299
2019-06-22T03:51:56,42.805,6.029,4330,1995,191.705,58.636,13.296
2019-06-22T03:54:56,42.805,6.029,4330,1995,191.789,58.662,13.296
2019-06-22T03:57:56,42.805,6.029,4330,1995,192.146,58.770,13.295
2019-06-22T04:00:56,42.805,6.029,4330,1995,192.323,58.824,13.295
2019-06-22T04:03:56,42.805,6.029,4330,1995,192.247,58.806,13.299
2019-06-22T04:06:56,42.805,6.029,4330,1995,192.079,58.752,13.297
2019-06-22T04:09:56,42.805,6.029,4330,1995,191.830,58.675,13.296
2019-06-22T04:12:56,42.805,6.029,4330,1995,191.660,58.629,13.301
2019-06-22T04:15:56,42.805,6.029,4330,1995,191.661,58.629,13.301
2019-06-22T04:18:56,42.805,6.029,4330,1995,191.642,58.620,13.298
2019-06-22T04:21:56,42.805,6.029,4330,1995,191.599,58.611,13.301
2019-06-22T04:24:56,42.805,6.029,4330,1995,191.518,58.582,13.298
2019-06-22T04:27:56,42.805,6.029,4330,1995,191.645,58.623,13.300
2019-06-22T04:30:56,42.805,6.029,4330,1995,191.842,58.680,13.297
2019-06-22T04:33:56,42.805,6.029,4330,1995,191.828,58.676,13.297
2019-06-22T04:36:56,42.805,6.029,4330,1995,191.717,58.645,13.300
2019-06-22T04:39:56,42.805,6.029,4330,1995,191.791,58.664,13.297
2019-06-22T04:42:56,42.805,6.029,4330,1995,191.874,58.689,13.297
2019-06-22T04:45:56,42.805,6.029,4330,1995,191.858,58.688,13.300
2019-06-22T04:48:56,42.805,6.029,4330,1995,191.850,58.683,13.298
2019-06-22T04:51:56,42.805,6.029,4330,1995,191.734,58.650,13.300
2019-06-22T04:54:56,42.805,6.029,4330,1995,191.656,58.626,13.300
2019-06-22T04:57:56,42.805,6.029,4330,1995,191.650,58.624,13.299
2019-06-22T05:00:56,42.805,6.029,4330,1995,191.643,58.618,13.297
2019-06-22T05:03:56,42.805,6.029,4330,1995,191.769,58.659,13.298
2019-06-22T05:06:56,42.805,6.029,4330,1995,191.821,58.675,13.299
2019-06-22T05:09:56,42.805,6.029,4330,1995,191.899,58.697,13.297
2019-06-22T05:12:56,42.805,6.029,4330,1995,191.938,58.708,13.296
2019-06-22T05:15:56,42.805,6.029,4330,1995,191.880,58.690,13.296
2019-06-22T05:18:56,42.805,6.029,4330,1995,191.773,58.661,13.299
2019-06-22T05:21:56,42.805,6.029,4330,1995,191.626,58.612,13.295
2019-06-22T05:24:56,42.805,6.029,4330,1995,191.528,58.582,13.296
2019-06-22T05:27:56,42.805,6.029,4330,1995,191.427,58.556,13.299
2019-06-22T05:30:56,42.805,6.029,4330,1995,191.366,58.535,13.298
2019-06-22T05:33:56,42.805,6.029,4330,1995,191.433,58.553,13.296
2019-06-22T05:36:56,42.805,6.029,4330,1995,191.467,58.568,13.299
2019-06-22T05:39:56,42.805,6.029,4330,1995,191.585,58.601,13.297
2019-06-22T05:42:56,42.805,6.029,4330,1995,191.572,58.597,13.297
2019-06-22T05:45:56,42.805,6.029,4330,1995,191.567,58.593,13.295
2019-06-22T05:48:56,42.805,6.029,4330,1995,191.515,58.584,13.300
2019-06-22T05:51:56,42.805,6.029,4330,1995,191.452,58.565,13.301
2019-06-22T05:54:56,42.805,6.029,4330,1995,191.397,58.544,13.297
2019-06-22T05:57:56,42.805,6.029,4330,1995,191.378,58.539,13.298
2019-06-22T06:00:56,42.805,6.029,4330,1995,191.204,58.483,13.296
2019-06-22T06:03:56,42.805,6.029,4330,1995,191.375,58.540,13.300
2019-06-22T06:06:56,42.805,6.029,4330,1995,191.477,58.572,13.300
2019-06-22T06:09:56,42.805,6.029,4330,1995,191.417,58.548,13.295
2019-06-22T06:15:56,42.805,6.029,4330,1995,191.446,58.555,13.294
2019-06-22T06:18:56,42.805,6.029,4330,1995,191.509,58.574,13.294
2019-06-22T06:21:56,42.805,6.029,4330,1995,191.392,58.539,13.295
2019-06-22T06:24:56,42.805,6.029,4330,1995,191.247,58.493,13.293
2019-06-22T06:27:56,42.805,6.029,4330,1995,191.390,58.538,13.294
2019-06-22T06:30:56,42.805,6.029,4330,1995,191.589,58.601,13.296
2019-06-22T06:33:56,42.805,6.029,4330,1995,191.620,58.610,13.296
2019-06-22T06:36:56,42.805,6.029,4330,1995,191.443,58.556,13.296
2019-06-22T06:39:56,42.805,6.029,4330,1995,191.651,58.620,13.296
2019-06-22T06:42:56,42.805,6.029,4330,1995,191.706,58.637,13.296
2019-06-22T06:45:56,42.805,6.029,4330,1995,191.698,58.634,13.296
2019-06-22T06:48:56,42.805,6.029,4330,1995,191.513,58.578,13.296
2019-06-22T06:51:56,42.805,6.029,4330,1995,191.468,58.566,13.298
2019-06-22T06:54:56,42.805,6.029,4330,1995,191.371,58.534,13.296
2019-06-22T06:57:56,42.805,6.029,4330,1995,191.494,58.569,13.294
2019-06-22T07:00:56,42.805,6.029,4330,1995,191.691,58.632,13.296
2019-06-22T07:03:56,42.805,6.029,4330,1995,191.767,58.655,13.296
2019-06-22T07:06:56,42.805,6.029,4330,1995,191.630,58.618,13.300
2019-06-22T07:09:56,42.805,6.029,4330,1995,191.586,58.604,13.299
2019-06-22T07:12:56,42.805,6.029,4330,1995,191.533,58.586,13.297
2019-06-22T07:15:56,42.805,6.029,4330,1995,191.484,58.571,13.298
2019-06-22T07:18:56,42.805,6.029,4330,1995,191.599,58.609,13.300
2019-06-22T07:21:56,42.805,6.029,4330,1995,191.451,58.565,13.300
2019-06-22T07:24:56,42.805,6.029,4330,1995,191.515,58.582,13.299
2019-06-22T07:27:56,42.805,6.029,4330,1995,191.640,58.623,13.301
2019-06-22T07:30:56,42.805,6.029,4330,1995,191.436,58.560,13.300
2019-06-22T07:33:56,42.805,6.029,4330,1995,191.259,58.505,13.300
2019-06-22T07:36:56,42.805,6.029,4330,1995,191.150,58.474,13.301
2019-06-22T07:39:56,42.805,6.029,4330,1995,190.819,58.370,13.299
2019-06-22T07:42:56,42.805,6.029,4330,1995,190.760,58.355,13.302
2019-06-22T07:45:56,42.805,6.029,4330,1995,190.640,58.319,13.302
2019-06-22T07:48:56,42.805,6.029,4330,1995,190.583,58.300,13.301
2019-06-22T07:51:56,42.805,6.029,4330,1995,190.605,58.306,13.301
2019-06-22T07:54:56,42.805,6.029,4330,1995,190.766,58.358,13.303
2019-06-22T07:57:56,42.805,6.029,4330,1995,190.738,58.348,13.301
2019-06-22T08:00:56,42.805,6.029,4330,1995,190.594,58.302,13.300
2019-06-22T08:03:56,42.805,6.029,4330,1995,190.494,58.271,13.300
2019-06-22T08:06:56,42.805,6.029,4330,1995,190.386,58.236,13.298
2019-06-22T08:09:56,42.805,6.029,4330,1995,190.465,58.262,13.300
2019-06-22T08:12:56,42.805,6.029,4330,1995,190.593,58.296,13.296
2019-06-22T08:15:56,42.805,6.029,4330,1995,190.504,58.272,13.298
2019-06-22T08:18:56,42.805,6.029,4330,1995,190.640,58.313,13.298
2019-06-22T08:21:56,42.805,6.029,4330,1995,190.624,58.304,13.295
2019-06-22T08:24:56,42.805,6.029,4330,1995,190.706,58.331,13.296
2019-06-22T08:27:56,42.805,6.029,4330,1995,190.594,58.295,13.295
2019-06-22T08:30:56,42.805,6.029,4330,1995,190.506,58.269,13.295
2019-06-22T08:33:56,42.805,6.029,4330,1995,190.368,58.226,13.295
2019-06-22T08:36:56,42.805,6.029,4330,1995,190.785,58.353,13.295
2019-06-22T08:39:56,42.805,6.029,4330,1995,190.915,58.395,13.296
2019-06-22T08:42:56,42.805,6.029,4330,1995,190.888,58.386,13.296
2019-06-22T08:45:56,42.805,6.029,4330,1995,191.057,58.437,13.295
2019-06-22T08:51:56,42.805,6.029,4330,1995,191.080,58.439,13.291
2019-06-22T08:54:56,42.805,6.029,4330,1995,191.339,58.522,13.294
2019-06-22T08:57:56,42.805,6.029,4330,1995,191.272,58.508,13.299
2019-06-22T09:00:56,42.805,6.029,4330,1995,191.033,58.433,13.298
2019-06-22T09:03:56,42.805,6.029,4330,1995,191.205,58.485,13.297
2019-06-22T09:06:56,42.805,6.029,4330,1995,191.205,58.485,13.297
2019-06-22T09:09:56,42.805,6.029,4330,1995,191.419,58.549,13.296
2019-06-22T09:12:56,42.805,6.029,4330,1995,191.503,58.576,13.297
2019-06-22T09:15:56,42.805,6.029,4330,1995,191.537,58.589,13.299
2019-06-22T09:18:56,42.805,6.029,4330,1995,191.521,58.581,13.297
2019-06-22T09:21:56,42.805,6.029,4330,1995,191.742,58.647,13.295
2019-06-22T09:24:56,42.805,6.029,4330,1995,191.781,58.659,13.296
2019-06-22T09:27:56,42.805,6.029,4330,1995,191.917,58.700,13.295
2019-06-22T09:30:56,42.805,6.029,4330,1995,192.137,58.766,13.294
2019-06-22T09:33:56,42.805,6.029,4330,1995,192.248,58.800,13.294
2019-06-22T09:36:56,42.805,6.029,4330,1995,192.154,58.772,13.295
2019-06-22T09:39:56,42.805,6.029,4330,1995,192.156,58.773,13.295
2019-06-22T09:42:56,42.805,6.029,4330,1995,192.191,58.784,13.295
2019-06-22T09:45:56,42.805,6.029,4330,1995,192.209,58.789,13.295
2019-06-22T09:48:56,42.805,6.029,4330,1995,192.155,58.771,13.294
2019-06-22T09:51:56,42.805,6.029,4330,1995,192.176,58.777,13.293
2019-06-22T09:54:56,42.805,6.029,4330,1995,192.259,58.802,13.293
2019-06-22T09:57:56,42.805,6.029,4330,1995,192.235,58.795,13.293
2019-06-22T10:00:56,42.805,6.029,4330,1995,192.312,58.819,13.294
2019-06-22T10:03:56,42.805,6.029,4330,1995,192.381,58.841,13.294
2019-06-22T10:06:56,42.805,6.029,4330,1995,192.412,58.850,13.294
2019-06-22T10:09:56,42.805,6.029,4330,1995,192.395,58.847,13.295
2019-06-22T10:12:56,42.805,6.029,4330,1995,192.266,58.808,13.296
2019-06-22T10:15:56,42.805,6.029,4330,1995,192.241,58.800,13.295
2019-06-22T10:18:56,42.805,6.029,4330,1995,192.366,58.835,13.293
2019-06-22T10:21:56,42.805,6.029,4330,1995,192.327,58.825,13.295
2019-06-22T10:24:56,42.805,6.029,4330,1995,192.405,58.849,13.295
2019-06-22T10:27:56,42.805,6.029,4330,1995,192.427,58.857,13.296
2019-06-22T10:30:56,42.805,6.029,4330,1995,192.416,58.854,13.296
2019-06-22T10:33:56,42.805,6.029,4330,1995,192.343,58.833,13.297
2019-06-22T10:36:56,42.805,6.029,4330,1995,192.449,58.864,13.296
2019-06-22T10:39:56,42.805,6.029,4330,1995,192.342,58.831,13.295
2019-06-22T10:42:56,42.805,6.029,4330,1995,192.316,58.823,13.295
2019-06-22T10:45:56,42.805,6.029,4330,1995,192.250,58.807,13.299
2019-06-22T10:48:56,42.805,6.029,4330,1995,192.176,58.781,13.297
2019-06-22T10:51:56,42.805,6.029,4330,1995,192.236,58.800,13.297
2019-06-22T10:54:56,42.805,6.029,4330,1995,192.249,58.803,13.296
2019-06-22T10:57:56,42.805,6.029,4330,1995,192.176,58.783,13.298
2019-06-22T11:00:56,42.805,6.029,4330,1995,192.159,58.778,13.298
2019-06-22T11:03:56,42.805,6.029,4330,1995,192.189,58.784,13.296
2019-06-22T11:06:56,42.805,6.029,4330,1995,192.146,58.772,13.296
2019-06-22T11:09:56,42.805,6.029,4330,1995,192.177,58.782,13.297
2019-06-22T11:12:56,42.805,6.029,4330,1995,192.290,58.816,13.297
2019-06-22T11:15:56,42.805,6.029,4330,1995,192.268,58.806,13.294
2019-06-22T11:18:56,42.805,6.029,4330,1995,192.343,58.832,13.297
2019-06-22T11:27:56,42.805,6.029,4330,1995,192.202,58.780,13.290
2019-06-22T11:30:56,42.805,6.029,4330,1995,192.219,58.791,13.294
2019-06-22T11:33:56,42.805,6.029,4330,1995,192.244,58.799,13.295
2019-06-22T11:36:56,42.805,6.029,4330,1995,192.260,58.807,13.296
2019-06-22T11:39:56,42.805,6.029,4330,1995,192.068,58.749,13.297
2019-06-22T11:42:56,42.805,6.029,4330,1995,192.115,58.760,13.294
2019-06-22T11:45:56,42.805,6.029,4330,1995,192.117,58.760,13.294
2019-06-22T11:48:56,42.805,6.029,4330,1995,192.150,58.772,13.295
2019-06-22T11:51:56,42.805,6.029,4330,1995,192.049,58.743,13.297
2019-06-22T11:54:56,42.805,6.029,4330,1995,192.128,58.769,13.298
2019-06-22T11:57:56,42.805,6.029,4330,1995,192.119,58.766,13.298
2019-06-22T12:00:56,42.805,6.029,4330,1995,192.211,58.793,13.298
2019-06-22T12:03:56,42.805,6.029,4330,1995,192.208,58.793,13.298
2019-06-22T12:06:56,42.805,6.029,4330,1995,192.298,58.823,13.300
2019-06-22T12:09:56,42.805,6.029,4330,1995,192.370,58.840,13.296
2019-06-22T12:12:56,42.805,6.029,4330,1995,192.283,58.813,13.296
2019-06-22T12:15:56,42.805,6.029,4330,1995,192.395,58.847,13.296
2019-06-22T12:18:56,42.805,6.029,4330,1995,192.268,58.808,13.295
2019-06-22T12:21:56,42.805,6.029,4330,1995,192.335,58.827,13.294
2019-06-22T12:24:56,42.805,6.029,4330,1995,192.322,58.822,13.294
2019-06-22T12:27:56,42.805,6.029,4330,1995,192.265,58.805,13.294
2019-06-22T12:30:56,42.805,6.029,4330,1995,192.321,58.822,13.294
2019-06-22T12:33:56,42.805,6.029,4330,1995,192.355,58.832,13.294
2019-06-22T12:36:56,42.805,6.029,4330,1995,192.327,58.824,13.294
2019-06-22T12:39:56,42.805,6.029,4330,1995,192.115,58.760,13.295
2019-06-22T12:42:56,42.805,6.029,4330,1995,191.954,58.712,13.295
2019-06-22T12:45:56,42.805,6.029,4330,1995,191.811,58.667,13.295
2019-06-22T12:48:56,42.805,6.029,4330,1995,191.940,58.707,13.295
2019-06-22T12:51:56,42.805,6.029,4330,1995,191.935,58.707,13.296
2019-06-22T12:54:56,42.805,6.029,4330,1995,191.839,58.678,13.297
2019-06-22T12:57:56,42.805,6.029,4330,1995,191.656,58.622,13.297
2019-06-22T13:00:56,42.805,6.029,4330,1995,191.480,58.567,13.295
2019-06-22T13:03:56,42.805,6.029,4330,1995,191.750,58.647,13.294
2019-06-22T13:06:56,42.805,6.029,4330,1995,191.770,58.654,13.295
2019-06-22T13:09:56,42.805,6.029,4330,1995,191.641,58.615,13.295
2019-06-22T13:12:56,42.805,6.029,4330,1995,191.645,58.616,13.294
2019-06-22T13:15:56,42.805,6.029,4330,1995,191.779,58.656,13.293
2019-06-22T13:18:56,42.805,6.029,4330,1995,191.951,58.708,13.293
2019-06-22T13:21:56,42.805,6.029,4330,1995,192.087,58.750,13.293
2019-06-22T13:24:56,42.805,6.029,4330,1995,192.083,58.749,13.294
2019-06-22T13:27:56,42.805,6.029,4330,1995,192.163,58.774,13.294
2019-06-22T13:30:56,42.805,6.029,4330,1995,192.121,58.763,13.295
2019-06-22T13:33:56,42.805,6.029,4330,1995,192.059,58.746,13.297
2019-06-22T13:36:56,42.805,6.029,4330,1995,192.046,58.741,13.296
2019-06-22T13:39:56,42.805,6.029,4330,1995,192.076,58.752,13.298
2019-06-22T13:42:56,42.805,6.029,4330,1995,191.910,58.702,13.298
2019-06-22T13:45:56,42.805,6.029,4330,1995,191.901,58.699,13.298
2019-06-22T13:48:56,42.805,6.029,4330,1995,192.037,58.740,13.298
2019-06-22T13:51:56,42.805,6.029,4330,1995,191.995,58.729,13.299
2019-06-22T13:54:56,42.805,6.029,4330,1995,191.942,58.713,13.299
2019-06-22T14:00:56,42.805,6.029,4330,1995,191.377,58.553,13.309
2019-06-22T14:03:56,42.805,6.029,4330,1995,191.075,58.449,13.300
2019-06-22T14:06:56,42.805,6.029,4330,1995,190.907,58.399,13.301
2019-06-22T14:09:56,42.805,6.029,4330,1995,190.870,58.383,13.298
2019-06-22T14:12:56,42.805,6.029,4330,1995,191.403,58.542,13.295
2019-06-22T14:15:56,42.805,6.029,4330,1995,191.844,58.678,13.295
2019-06-22T14:18:56,42.805,6.029,4330,1995,191.918,58.700,13.295
2019-06-22T14:21:56,42.805,6.029,4330,1995,191.885,58.690,13.295
2019-06-22T14:24:56,42.805,6.029,4330,1995,191.918,58.701,13.296
2019-06-22T14:27:56,42.805,6.029,4330,1995,191.818,58.675,13.299
2019-06-22T14:30:56,42.805,6.029,4330,1995,191.499,58.579,13.300
2019-06-22T14:33:56,42.805,6.029,4330,1995,191.202,58.491,13.302
2019-06-22T14:36:56,42.805,6.029,4330,1995,190.986,58.425,13.302
2019-06-22T14:39:56,42.805,6.029,4330,1995,190.840,58.382,13.304
2019-06-22T14:42:56,42.805,6.029,4330,1995,190.742,58.348,13.301
2019-06-22T14:45:56,42.805,6.029,4330,1995,190.727,58.344,13.301
2019-06-22T14:48:56,42.805,6.029,4330,1995,191.007,58.427,13.299
2019-06-22T14:51:56,42.805,6.029,4330,1995,191.094,58.460,13.304
2019-06-22T14:54:56,42.805,6.029,4330,1995,191.321,58.524,13.300
2019-06-22T14:57:56,42.805,6.029,4330,1995,191.240,58.501,13.301
2019-06-22T15:00:56,42.805,6.029,4330,1995,190.916,58.406,13.304
2019-06-22T15:03:56,42.805,6.029,4330,1995,190.664,58.324,13.300
2019-06-22T15:06:56,42.805,6.029,4330,1995,190.526,58.283,13.301
2019-06-22T15:09:56,42.805,6.029,4330,1995,190.616,58.312,13.302
2019-06-22T15:12:56,42.805,6.029,4330,1995,190.600,58.308,13.304
2019-06-22T15:15:56,42.805,6.029,4330,1995,190.562,58.297,13.304
2019-06-22T15:18:56,42.805,6.029,4330,1995,190.383,58.240,13.302
2019-06-22T15:21:56,42.805,6.029,4330,1995,190.436,58.262,13.307
2019-06-22T15:24:56,42.805,6.029,4330,1995,190.393,58.253,13.310
2019-06-22T15:27:56,42.805,6.029,4330,1995,190.387,58.246,13.306
2019-06-22T15:30:56,42.805,6.029,4330,1995,190.329,58.233,13.310
2019-06-22T15:33:56,42.805,6.029,4330,1995,190.379,58.245,13.307
2019-06-22T15:36:56,42.805,6.029,4330,1995,190.282,58.216,13.307
2019-06-22T15:39:56,42.805,6.029,4330,1995,190.352,58.234,13.305
2019-06-22T15:42:56,42.805,6.029,4330,1995,190.366,58.239,13.305
2019-06-22T15:45:56,42.805,6.029,4330,1995,190.287,58.216,13.306
2019-06-22T15:48:56,42.805,6.029,4330,1995,190.147,58.174,13.307
2019-06-22T15:51:56,42.805,6.029,4330,1995,190.189,58.184,13.304
2019-06-22T15:54:56,42.805,6.029,4330,1995,189.990,58.122,13.304
2019-06-22T15:57:56,42.805,6.029,4330,1995,190.127,58.166,13.306
2019-06-22T16:00:56,42.805,6.029,4330,1995,190.225,58.197,13.306
2019-06-22T16:03:56,42.805,6.029,4330,1995,190.281,58.214,13.306
2019-06-22T16:06:56,42.805,6.029,4330,1995,190.210,58.192,13.306
2019-06-22T16:09:56,42.805,6.029,4330,1995,190.353,58.231,13.302
2019-06-22T16:12:56,42.805,6.029,4330,1995,190.340,58.231,13.305
2019-06-22T16:15:56,42.805,6.029,4330,1995,190.259,58.202,13.302
2019-06-22T16:18:56,42.805,6.029,4330,1995,190.431,58.258,13.304
2019-06-22T16:21:56,42.805,6.029,4330,1995,190.336,58.229,13.304
2019-06-22T16:24:56,42.805,6.029,4330,1995,190.442,58.257,13.301
2019-06-22T16:27:56,42.805,6.029,4330,1995,190.252,58.203,13.305
2019-06-22T16:30:56,42.805,6.029,4330,1995,190.258,58.199,13.300
2019-06-22T16:36:56,42.805,6.029,4330,1995,190.671,58.316,13.293
2019-06-22T16:39:56,42.805,6.029,4330,1995,190.683,58.327,13.299
2019-06-22T16:42:56,42.805,6.029,4330,1995,190.696,58.334,13.301
2019-06-22T16:45:56,42.805,6.029,4330,1995,190.632,58.317,13.303
2019-06-22T16:48:56,42.805,6.029,4330,1995,190.572,58.298,13.302
2019-06-22T16:51:56,42.805,6.029,4330,1995,190.474,58.271,13.305
2019-06-22T16:54:56,42.805,6.029,4330,1995,190.528,58.284,13.302
2019-06-22T16:57:56,42.805,6.029,4330,1995,190.747,58.345,13.298
2019-06-22T17:00:56,42.805,6.029,4330,1995,190.957,58.413,13.300
2019-06-22T17:03:56,42.805,6.029,4330,1995,191.058,58.444,13.300
2019-06-22T17:06:56,42.805,6.029,4330,1995,190.942,58.413,13.304
2019-06-22T17:09:56,42.805,6.029,4330,1995,190.846,58.381,13.302
2019-06-22T17:12:56,42.805,6.029,4330,1995,191.014,58.428,13.298
2019-06-22T17:15:56,42.805,6.029,4330,1995,190.975,58.415,13.297
2019-06-22T17:18:56,42.805,6.029,4330,1995,191.098,58.453,13.298
2019-06-22T17:21:56,42.805,6.029,4330,1995,191.223,58.489,13.296
2019-06-22T17:24:56,42.805,6.029,4330,1995,191.265,58.503,13.297
2019-06-22T17:27:56,42.805,6.029,4330,1995,191.175,58.479,13.299
2019-06-22T17:30:56,42.805,6.029,4330,1995,191.188,58.477,13.295
2019-06-22T17:33:56,42.805,6.029,4330,1995,191.435,58.553,13.295
2019-06-22T17:36:56,42.805,6.029,4330,1995,191.768,58.654,13.294
2019-06-22T17:39:56,42.805,6.029,4330,1995,191.759,58.651,13.294
2019-06-22T17:42:56,42.805,6.029,4330,1995,191.643,58.614,13.293
2019-06-22T17:45:56,42.805,6.029,4330,1995,191.585,58.603,13.298
2019-06-22T17:48:56,42.805,6.029,4330,1995,191.537,58.583,13.294
2019-06-22T17:51:56,42.805,6.029,4330,1995,191.391,58.540,13.296
2019-06-22T17:54:56,42.805,6.029,4330,1995,191.134,58.465,13.299
2019-06-22T17:57:56,42.805,6.029,4330,1995,191.164,58.474,13.298
2019-06-22T18:00:56,42.805,6.029,4330,1995,191.350,58.533,13.300
2019-06-22T18:03:56,42.805,6.029,4330,1995,191.508,58.574,13.295
2019-06-22T18:06:56,42.805,6.029,4330,1995,191.747,58.648,13.295
2019-06-22T18:09:56,42.805,6.029,4330,1995,191.527,58.582,13.296
2019-06-22T18:12:56,42.805,6.029,4330,1995,191.417,58.556,13.302
2019-06-22T18:15:56,42.805,6.029,4330,1995,191.327,58.519,13.294
2019-06-22T18:18:56,42.805,6.029,4330,1995,191.569,58.593,13.295
2019-06-22T18:21:56,42.805,6.029,4330,1995,191.755,58.654,13.298
2019-06-22T18:24:56,42.805,6.029,4330,1995,192.029,58.733,13.294
2019-06-22T18:27:56,42.805,6.029,4330,1995,192.121,58.761,13.294
2019-06-22T18:30:56,42.805,6.029,4330,1995,192.268,58.807,13.295
2019-06-22T18:33:56,42.805,6.029,4330,1995,192.528,58.885,13.293